Tracking 29892 objects as of 21-Nov-2024
HD Live streaming from Space Station
objects crossing your sky now

STARLINK-2102

Track STARLINK-2102 now!
10-day predictions
STARLINK-2102 is classified as:


NORAD ID: 47382
Int'l Code: 2021-005AK
Perigee: 553.1 km
Apogee: 555.3 km
Inclination: 53.1 °
Period: 95.6 minutes
Semi major axis: 6925 km
RCS: Unknown
Launch date: January 20, 2021
Source: United States (US)
Launch site: AIR FORCE EASTERN TEST RANGE (AFETR)
Your satellite tracking list
Your tracking list is empty




NASA's NSSDC Master Catalog

Two Line Element Set (TLE):
1 47382U 21005AK  24325.54709132  .00019416  00000-0  13171-2 0  9995
2 47382  53.0544   0.1293 0001593  89.1314 270.9857 15.06447173211994
Source of the keplerian elements: AFSPC